Zurück zum Katalog

FREGAT DEB

LostUNKNOWN
NORAD 45950·DEBRIS·🇷🇺 Russia

Gestartet Jul 18, 2011 von Baikonur Cosmodrome

Loading…

Nächste Überflüge (nächste 24 Stunden)

TLE

VeraltetSource: Space-Track

Epoche: Sep 2, 2021, 01:34 UTC

1 45950U 11037FF  21245.06575954  .00076187  00000-0  70677-1 0  9997
2 45950  51.4710 272.7569 2397569 287.0170  48.3154  9.93111574    13

Verfolge FREGAT DEB in Echtzeit mit AllMySat

Download on the App Store